| time (UTC) | temp C | wind direction | speed KPH | gust KPH | rain 1hr cm | rain 24hr cm | rain mn cm | humidity % | barometer mb |
| 20260509212416 | 15 | 202 | 4.8 | 9.7 | 0.00 | 0.00 | 0.00 | 74 | 1001.9 |
| 20260509211917 | 15 | 200 | 8.0 | 9.7 | 0.00 | 0.00 | 0.00 | 74 | 1001.9 |
| 20260509211418 | 15 | 210 | 9.7 | 12.9 | 0.00 | 0.00 | 0.00 | 74 | 1001.9 |
| 20260509210916 | 15 | 215 | 9.7 | 12.9 | 0.00 | 0.00 | 0.00 | 74 | 1002.0 |
| 20260509210417 | 15 | 213 | 8.0 | 9.7 | 0.00 | 0.00 | 0.00 | 73 | 1002.1 |
| 20260509205918 | 15 | 195 | 4.8 | 11.3 | 0.00 | 0.00 | 0.00 | 73 | 1002.1 |
| 20260509205417 | 15 | 220 | 4.8 | 9.7 | 0.00 | 0.00 | 0.00 | 72 | 1002.3 |
| 20260509204918 | 16 | 219 | 4.8 | 12.9 | 0.00 | 0.00 | 0.00 | 72 | 1002.3 |
| 20260509204416 | 16 | 234 | 4.8 | 9.7 | 0.00 | 0.00 | 0.00 | 72 | 1002.4 |
| 20260509203918 | 16 | 219 | 9.7 | 14.5 | 0.00 | 0.00 | 0.00 | 71 | 1002.4 |
| 20260509203417 | 16 | 206 | 9.7 | 14.5 | 0.00 | 0.00 | 0.00 | 71 | 1002.4 |
| 20260509202917 | 16 | 202 | 11.3 | 12.9 | 0.00 | 0.00 | 0.00 | 70 | 1002.5 |
| 20260509202416 | 16 | 226 | 11.3 | 19.3 | 0.00 | 0.00 | 0.00 | 70 | 1002.6 |
| 20260509201917 | 16 | 230 | 8.0 | 14.5 | 0.00 | 0.00 | 0.00 | 70 | 1002.6 |
| 20260509201416 | 16 | 214 | 8.0 | 12.9 | 0.00 | 0.00 | 0.00 | 69 | 1002.5 |
| 20260509200917 | 16 | 223 | 11.3 | 19.3 | 0.00 | 0.00 | 0.00 | 68 | 1002.7 |
| 20260509200420 | 16 | 221 | 12.9 | 16.1 | 0.00 | 0.00 | 0.00 | 67 | 1002.7 |
| 20260509195917 | 16 | 221 | 14.5 | 19.3 | 0.00 | 0.00 | 0.00 | 66 | 1002.6 |
| 20260509195418 | 17 | 220 | 11.3 | 14.5 | 0.00 | 0.00 | 0.00 | 67 | 1002.7 |
| 20260509194917 | 17 | 232 | 12.9 | 22.5 | 0.00 | 0.00 | 0.00 | 66 | 1002.8 |
| 20260509194417 | 17 | 230 | 12.9 | 16.1 | 0.00 | 0.00 | 0.00 | 68 | 1002.8 |
| 20260509193918 | 17 | 229 | 20.9 | 22.5 | 0.00 | 0.00 | 0.00 | 68 | 1002.8 |
| 20260509193416 | 17 | 216 | 12.9 | 19.3 | 0.00 | 0.00 | 0.00 | 68 | 1002.9 |
| 20260509192917 | 17 | 217 | 16.1 | 22.5 | 0.00 | 0.00 | 0.00 | 68 | 1002.8 |
| 20260509192418 | 17 | 205 | 16.1 | 29.0 | 0.00 | 0.00 | 0.00 | 69 | 1002.8 |
| 20260509191917 | 16 | 244 | 12.9 | 25.7 | 0.00 | 0.00 | 0.00 | 69 | 1002.9 |
| 20260509191416 | 17 | 227 | 20.9 | 29.0 | 0.00 | 0.00 | 0.00 | 67 | 1003.4 |
| 20260509190917 | 17 | 220 | 16.1 | 24.1 | 0.00 | 0.00 | 0.00 | 66 | 1003.5 |
| 20260509190417 | 17 | 216 | 16.1 | 24.1 | 0.00 | 0.00 | 0.00 | 69 | 1003.4 |
| 20260509185918 | 17 | 225 | 20.9 | 24.1 | 0.00 | 0.00 | 0.00 | 69 | 1003.6 |
| 20260509185417 | 17 | 222 | 19.3 | 29.0 | 0.00 | 0.00 | 0.00 | 69 | 1003.5 |
| 20260509184917 | 17 | 223 | 20.9 | 27.4 | 0.00 | 0.00 | 0.00 | 70 | 1003.6 |
| 20260509184416 | 17 | 205 | 11.3 | 19.3 | 0.00 | 0.00 | 0.00 | 71 | 1003.5 |
| 20260509183918 | 16 | 204 | 16.1 | 24.1 | 0.00 | 0.00 | 0.00 | 70 | 1003.7 |
| 20260509183417 | 17 | 234 | 12.9 | 19.3 | 0.00 | 0.00 | 0.00 | 69 | 1003.7 |
| 20260509182916 | 17 | 205 | 19.3 | 24.1 | 0.00 | 0.00 | 0.00 | 70 | 1003.8 |
| 20260509182418 | 17 | 214 | 19.3 | 32.2 | 0.00 | 0.00 | 0.00 | 68 | 1003.8 |
| 20260509181920 | 17 | 206 | 16.1 | 25.7 | 0.00 | 0.00 | 0.00 | 70 | 1003.8 |
| 20260509181417 | 17 | 202 | 16.1 | 20.9 | 0.00 | 0.00 | 0.00 | 70 | 1003.7 |
| 20260509180918 | 17 | 201 | 16.1 | 19.3 | 0.00 | 0.00 | 0.00 | 70 | 1003.7 |
| 20260509180418 | 16 | 209 | 19.3 | 25.7 | 0.00 | 0.00 | 0.00 | 69 | 1003.8 |
| 20260509175917 | 16 | 228 | 12.9 | 20.9 | 0.00 | 0.00 | 0.00 | 69 | 1003.8 |
| 20260509175416 | 16 | 220 | 16.1 | 22.5 | 0.00 | 0.00 | 0.00 | 68 | 1004.0 |
| 20260509174917 | 16 | 216 | 16.1 | 20.9 | 0.00 | 0.00 | 0.00 | 69 | 1003.9 |
| 20260509174416 | 16 | 195 | 14.5 | 22.5 | 0.00 | 0.00 | 0.00 | 72 | 1004.0 |
| 20260509173917 | 16 | 221 | 16.1 | 24.1 | 0.00 | 0.00 | 0.00 | 72 | 1004.1 |
| 20260509173417 | 16 | 230 | 12.9 | 14.5 | 0.00 | 0.00 | 0.00 | 71 | 1004.2 |
| 20260509172917 | 15 | 245 | 14.5 | 22.5 | 0.00 | 0.00 | 0.00 | 72 | 1004.3 |
| 20260509172416 | 15 | 243 | 9.7 | 29.0 | 0.00 | 0.00 | 0.00 | 73 | 1004.5 |
| 20260509171917 | 15 | 227 | 12.9 | 19.3 | 0.00 | 0.00 | 0.00 | 72 | 1004.7 |
| 20260509171418 | 15 | 215 | 9.7 | 14.5 | 0.00 | 0.00 | 0.00 | 75 | 1004.7 |
| 20260509170917 | 15 | 240 | 12.9 | 19.3 | 0.00 | 0.00 | 0.00 | 74 | 1004.8 |
| 20260509170416 | 15 | 251 | 16.1 | 29.0 | 0.00 | 0.00 | 0.00 | 74 | 1004.8 |
| 20260509165917 | 15 | 235 | 11.3 | 19.3 | 0.00 | 0.00 | 0.00 | 76 | 1004.7 |
| 20260509165417 | 15 | 219 | 12.9 | 20.9 | 0.00 | 0.00 | 0.00 | 76 | 1004.7 |
| 20260509164916 | 15 | 227 | 11.3 | 19.3 | 0.00 | 0.00 | 0.00 | 76 | 1004.8 |
| 20260509164418 | 15 | 206 | 12.9 | 16.1 | 0.00 | 0.00 | 0.00 | 75 | 1004.8 |
| 20260509163917 | 15 | 236 | 11.3 | 12.9 | 0.00 | 0.00 | 0.00 | 74 | 1004.9 |
| 20260509163416 | 15 | 200 | 16.1 | 20.9 | 0.00 | 0.00 | 0.00 | 75 | 1004.9 |
| 20260509162917 | 15 | 215 | 11.3 | 19.3 | 0.00 | 0.00 | 0.00 | 75 | 1005.0 |
| 20260509162418 | 15 | 233 | 12.9 | 19.3 | 0.00 | 0.00 | 0.00 | 74 | 1005.1 |
| 20260509161917 | 15 | 212 | 12.9 | 19.3 | 0.00 | 0.00 | 0.00 | 76 | 1005.2 |
| 20260509161416 | 15 | 212 | 11.3 | 14.5 | 0.00 | 0.00 | 0.00 | 76 | 1005.3 |
| 20260509160918 | 14 | 215 | 11.3 | 16.1 | 0.00 | 0.00 | 0.00 | 75 | 1005.3 |
| 20260509160417 | 14 | 211 | 12.9 | 19.3 | 0.00 | 0.00 | 0.00 | 76 | 1005.3 |
| 20260509155916 | 14 | 201 | 14.5 | 20.9 | 0.00 | 0.00 | 0.00 | 75 | 1005.3 |
| 20260509155417 | 14 | 204 | 11.3 | 20.9 | 0.00 | 0.00 | 0.00 | 75 | 1005.3 |
| 20260509154917 | 14 | 211 | 12.9 | 19.3 | 0.00 | 0.00 | 0.00 | 76 | 1005.2 |
| 20260509154416 | 14 | 213 | 12.9 | 16.1 | 0.00 | 0.00 | 0.00 | 76 | 1005.2 |
| 20260509153918 | 14 | 206 | 14.5 | 19.3 | 0.00 | 0.00 | 0.00 | 75 | 1005.2 |
| 20260509153416 | 14 | 196 | 14.5 | 20.9 | 0.00 | 0.00 | 0.00 | 76 | 1005.2 |
| 20260509152918 | 15 | 203 | 16.1 | 19.3 | 0.00 | 0.00 | 0.00 | 75 | 1005.3 |
| 20260509152416 | 15 | 228 | 9.7 | 14.5 | 0.00 | 0.00 | 0.00 | 75 | 1005.3 |
| 20260509151919 | 15 | 228 | 11.3 | 16.1 | 0.00 | 0.00 | 0.00 | 75 | 1005.3 |
| 20260509151416 | 15 | 199 | 14.5 | 24.1 | 0.00 | 0.00 | 0.00 | 75 | 1005.2 |
| 20260509150917 | 15 | 192 | 14.5 | 19.3 | 0.00 | 0.00 | 0.00 | 76 | 1005.2 |
| 20260509150418 | 15 | 185 | 12.9 | 16.1 | 0.00 | 0.00 | 0.00 | 77 | 1005.3 |
| 20260509145916 | 14 | 232 | 9.7 | 14.5 | 0.00 | 0.00 | 0.00 | 78 | 1005.3 |
| 20260509145417 | 14 | 210 | 9.7 | 19.3 | 0.00 | 0.00 | 0.00 | 78 | 1005.3 |
| 20260509144917 | 13 | 212 | 11.3 | 16.1 | 0.00 | 0.00 | 0.00 | 79 | 1005.3 |
| 20260509144416 | 13 | 210 | 9.7 | 12.9 | 0.00 | 0.00 | 0.00 | 80 | 1005.3 |
| 20260509143417 | 13 | 203 | 8.0 | 12.9 | 0.00 | 0.00 | 0.00 | 81 | 1005.4 |
| 20260509142918 | 13 | 209 | 9.7 | 11.3 | 0.00 | 0.00 | 0.00 | 81 | 1005.4 |
| 20260509142418 | 13 | 203 | 9.7 | 12.9 | 0.00 | 0.00 | 0.00 | 81 | 1005.4 |
| 20260509141917 | 13 | 212 | 11.3 | 14.5 | 0.00 | 0.00 | 0.00 | 81 | 1005.5 |
| 20260509141417 | 13 | 198 | 11.3 | 16.1 | 0.00 | 0.00 | 0.00 | 81 | 1005.5 |
| 20260509140916 | 13 | 196 | 11.3 | 19.3 | 0.00 | 0.00 | 0.00 | 81 | 1005.5 |
| 20260509140418 | 13 | 193 | 9.7 | 14.5 | 0.00 | 0.00 | 0.00 | 81 | 1005.5 |
| 20260509135920 | 13 | 194 | 9.7 | 16.1 | 0.00 | 0.00 | 0.00 | 81 | 1005.6 |
| 20260509135417 | 13 | 201 | 11.3 | 14.5 | 0.00 | 0.00 | 0.00 | 82 | 1005.7 |
| 20260509134918 | 12 | 201 | 11.3 | 14.5 | 0.00 | 0.00 | 0.00 | 82 | 1005.7 |
| 20260509134417 | 12 | 197 | 11.3 | 19.3 | 0.00 | 0.00 | 0.00 | 82 | 1005.8 |
| 20260509133917 | 12 | 194 | 9.7 | 12.9 | 0.00 | 0.00 | 0.00 | 83 | 1005.9 |
| 20260509133417 | 12 | 206 | 9.7 | 14.5 | 0.00 | 0.00 | 0.00 | 83 | 1006.0 |
| 20260509132916 | 12 | 191 | 8.0 | 11.3 | 0.00 | 0.00 | 0.00 | 82 | 1005.9 |
| 20260509132418 | 12 | 192 | 9.7 | 12.9 | 0.00 | 0.00 | 0.00 | 82 | 1005.9 |
| 20260509131918 | 12 | 196 | 9.7 | 19.3 | 0.00 | 0.00 | 0.00 | 83 | 1005.9 |
| 20260509131417 | 12 | 204 | 11.3 | 14.5 | 0.00 | 0.00 | 0.00 | 83 | 1005.9 |
| 20260509130917 | 12 | 188 | 11.3 | 16.1 | 0.00 | 0.00 | 0.00 | 83 | 1006.0 |
| 20260509130416 | 12 | 187 | 9.7 | 19.3 | 0.00 | 0.00 | 0.00 | 84 | 1006.0 |
| 20260509125918 | 12 | 194 | 9.7 | 19.3 | 0.00 | 0.00 | 0.00 | 84 | 1005.9 |
| 20260509125417 | 12 | 203 | 11.3 | 12.9 | 0.00 | 0.00 | 0.00 | 85 | 1005.9 |
| 20260509124917 | 11 | 175 | 9.7 | 14.5 | 0.00 | 0.00 | 0.00 | 85 | 1005.9 |
| 20260509124416 | 11 | 192 | 9.7 | 12.9 | 0.00 | 0.00 | 0.00 | 86 | 1005.9 |
| 20260509123918 | 11 | 187 | 8.0 | 11.3 | 0.00 | 0.00 | 0.00 | 86 | 1005.9 |
| 20260509123417 | 11 | 190 | 9.7 | 14.5 | 0.00 | 0.00 | 0.00 | 87 | 1006.0 |
| 20260509122916 | 11 | 191 | 3.2 | 8.0 | 0.00 | 0.00 | 0.00 | 87 | 1006.0 |
| 20260509122417 | 11 | 165 | 3.2 | 4.8 | 0.00 | 0.00 | 0.00 | 87 | 1006.1 |
| 20260509121917 | 11 | 185 | 9.7 | 11.3 | 0.00 | 0.00 | 0.00 | 88 | 1006.2 |
| 20260509121417 | 10 | 189 | 4.8 | 12.9 | 0.00 | 0.00 | 0.00 | 88 | 1006.3 |
| 20260509120917 | 10 | 166 | 4.8 | 8.0 | 0.00 | 0.00 | 0.00 | 88 | 1006.3 |
| 20260509120418 | 10 | 173 | 9.7 | 16.1 | 0.00 | 0.00 | 0.00 | 89 | 1006.3 |
| 20260509115918 | 10 | 191 | 8.0 | 16.1 | 0.00 | 0.00 | 0.00 | 89 | 1006.2 |
| 20260509115416 | 10 | 168 | 4.8 | 4.8 | 0.00 | 0.00 | 0.00 | 89 | 1006.3 |
| 20260509114916 | 10 | 145 | 3.2 | 4.8 | 0.00 | 0.00 | 0.00 | 90 | 1006.2 |
| 20260509114418 | 10 | 153 | 3.2 | 4.8 | 0.00 | 0.00 | 0.00 | 90 | 1006.3 |
| 20260509113916 | 9 | 182 | 4.8 | 12.9 | 0.00 | 0.00 | 0.00 | 90 | 1006.4 |
| 20260509113416 | 9 | 170 | 1.6 | 3.2 | 0.00 | 0.00 | 0.00 | 90 | 1006.3 |
| 20260509112917 | 9 | 159 | 1.6 | 3.2 | 0.00 | 0.00 | 0.00 | 90 | 1006.3 |
| 20260509112416 | 9 | 162 | 3.2 | 4.8 | 0.00 | 0.00 | 0.00 | 91 | 1006.3 |
| 20260509111917 | 8 | 182 | 3.2 | 4.8 | 0.00 | 0.00 | 0.00 | 91 | 1006.2 |
| 20260509111416 | 8 | 169 | 3.2 | 4.8 | 0.00 | 0.00 | 0.00 | 91 | 1006.3 |
| 20260509110917 | 8 | 171 | 1.6 | 8.0 | 0.00 | 0.03 | 0.00 | 90 | 1006.3 |
| 20260509110416 | 8 | 174 | 3.2 | 4.8 | 0.00 | 0.03 | 0.00 | 90 | 1006.3 |
| 20260509105917 | 8 | 138 | 1.6 | 4.8 | 0.00 | 0.05 | 0.00 | 90 | 1006.3 |
| 20260509105418 | 7 | 184 | 1.6 | 3.2 | 0.00 | 0.05 | 0.00 | 90 | 1006.3 |
| 20260509104916 | 7 | 187 | 1.6 | 3.2 | 0.00 | 0.08 | 0.00 | 90 | 1006.3 |
| 20260509104418 | 7 | 187 | 3.2 | 3.2 | 0.00 | 0.10 | 0.00 | 89 | 1006.3 |
| 20260509103916 | 7 | 187 | 3.2 | 3.2 | 0.00 | 0.10 | 0.00 | 89 | 1006.4 |
| 20260509103417 | 7 | 187 | 1.6 | 3.2 | 0.00 | 0.10 | 0.00 | 89 | 1006.5 |
| 20260509102917 | 7 | 187 | 1.6 | 3.2 | 0.00 | 0.10 | 0.00 | 88 | 1006.5 |
| 20260509102417 | 7 | 187 | 0.0 | 0.0 | 0.00 | 0.10 | 0.00 | 88 | 1006.4 |
| 20260509101918 | 7 | 187 | 0.0 | 0.0 | 0.00 | 0.10 | 0.00 | 88 | 1006.4 |
| 20260509101418 | 7 | 187 | 0.0 | 0.0 | 0.00 | 0.10 | 0.00 | 88 | 1006.4 |
| 20260509100916 | 6 | 187 | 0.0 | 0.0 | 0.00 | 0.10 | 0.00 | 87 | 1006.5 |
| 20260509100416 | 6 | 187 | 1.6 | 3.2 | 0.00 | 0.10 | 0.00 | 87 | 1006.5 |
| 20260509095917 | 6 | 187 | 0.0 | 3.2 | 0.00 | 0.10 | 0.00 | 85 | 1006.5 |
| 20260509095416 | 6 | 187 | 0.0 | 0.0 | 0.00 | 0.10 | 0.00 | 85 | 1006.4 |
| 20260509094917 | 7 | 187 | 0.0 | 0.0 | 0.00 | 0.13 | 0.00 | 85 | 1006.5 |
| 20260509094418 | 7 | 187 | 0.0 | 0.0 | 0.00 | 0.13 | 0.00 | 85 | 1006.5 |
| 20260509093918 | 7 | 187 | 0.0 | 0.0 | 0.00 | 0.13 | 0.00 | 85 | 1006.5 |
| 20260509093417 | 7 | 187 | 0.0 | 1.6 | 0.00 | 0.13 | 0.00 | 85 | 1006.5 |
| 20260509092918 | 7 | 187 | 0.0 | 0.0 | 0.00 | 0.13 | 0.00 | 86 | 1006.5 |
| 20260509092417 | 7 | 187 | 1.6 | 3.2 | 0.00 | 0.13 | 0.00 | 86 | 1006.4 |
| 20260509091916 | 7 | 181 | 3.2 | 4.8 | 0.00 | 0.13 | 0.00 | 85 | 1006.4 |
| 20260509091417 | 7 | 180 | 1.6 | 3.2 | 0.00 | 0.13 | 0.00 | 85 | 1006.4 |
| 20260509090917 | 7 | 141 | 1.6 | 3.2 | 0.00 | 0.13 | 0.00 | 85 | 1006.4 |
| 20260509090418 | 7 | 141 | 1.6 | 1.6 | 0.00 | 0.13 | 0.00 | 85 | 1006.4 |
| 20260509085917 | 7 | 173 | 1.6 | 4.8 | 0.00 | 0.13 | 0.00 | 84 | 1006.4 |
| 20260509085418 | 7 | 174 | 1.6 | 4.8 | 0.00 | 0.13 | 0.00 | 84 | 1006.5 |
| 20260509084916 | 7 | 170 | 1.6 | 3.2 | 0.00 | 0.13 | 0.00 | 83 | 1006.5 |
| 20260509084417 | 7 | 162 | 3.2 | 4.8 | 0.00 | 0.13 | 0.00 | 83 | 1006.5 |
| 20260509083917 | 7 | 147 | 1.6 | 4.8 | 0.00 | 0.13 | 0.00 | 82 | 1006.5 |
| 20260509083418 | 7 | 161 | 1.6 | 4.8 | 0.00 | 0.13 | 0.00 | 81 | 1006.6 |
| 20260509082918 | 7 | 161 | 1.6 | 3.2 | 0.00 | 0.13 | 0.00 | 81 | 1006.6 |
| 20260509082418 | 7 | 174 | 1.6 | 4.8 | 0.00 | 0.13 | 0.00 | 81 | 1006.7 |
| 20260509081918 | 7 | 187 | 1.6 | 3.2 | 0.00 | 0.13 | 0.00 | 81 | 1006.7 |
| 20260509081416 | 7 | 158 | 1.6 | 3.2 | 0.00 | 0.13 | 0.00 | 81 | 1006.7 |
| 20260509080918 | 7 | 198 | 1.6 | 3.2 | 0.00 | 0.13 | 0.00 | 80 | 1006.6 |
| 20260509080417 | 7 | 159 | 1.6 | 4.8 | 0.00 | 0.13 | 0.00 | 80 | 1006.7 |
| 20260509075917 | 7 | 164 | 1.6 | 4.8 | 0.00 | 0.13 | 0.00 | 80 | 1006.7 |
| 20260509075417 | 7 | 141 | 3.2 | 3.2 | 0.00 | 0.13 | 0.00 | 80 | 1006.6 |
| 20260509074917 | 7 | 156 | 3.2 | 4.8 | 0.00 | 0.13 | 0.00 | 80 | 1006.7 |
| 20260509074418 | 7 | 154 | 3.2 | 4.8 | 0.00 | 0.13 | 0.00 | 80 | 1006.8 |
| 20260509073917 | 6 | 141 | 3.2 | 4.8 | 0.00 | 0.13 | 0.00 | 81 | 1006.8 |
| 20260509073417 | 6 | 136 | 3.2 | 4.8 | 0.00 | 0.13 | 0.00 | 81 | 1006.8 |
| 20260509072918 | 6 | 149 | 3.2 | 4.8 | 0.00 | 0.13 | 0.00 | 81 | 1006.9 |
| 20260509072416 | 6 | 157 | 3.2 | 4.8 | 0.00 | 0.13 | 0.00 | 81 | 1007.0 |
| 20260509071918 | 5 | 146 | 3.2 | 4.8 | 0.00 | 0.13 | 0.00 | 80 | 1007.0 |
| 20260509071418 | 5 | 162 | 1.6 | 3.2 | 0.00 | 0.13 | 0.00 | 80 | 1007.0 |
| 20260509070917 | 5 | 145 | 0.0 | 0.0 | 0.00 | 0.13 | 0.00 | 80 | 1007.1 |
| 20260509070416 | 5 | 145 | 0.0 | 0.0 | 0.00 | 0.13 | 0.00 | 80 | 1007.2 |
| 20260509065916 | 5 | 145 | 0.0 | 0.0 | 0.00 | 0.13 | 0.00 | 80 | 1007.1 |
| 20260509065418 | 5 | 145 | 0.0 | 0.0 | 0.00 | 0.13 | 0.00 | 81 | 1007.1 |
| 20260509064917 | 5 | 145 | 0.0 | 0.0 | 0.00 | 0.13 | 0.00 | 80 | 1007.2 |
| 20260509064416 | 5 | 145 | 0.0 | 0.0 | 0.00 | 0.13 | 0.00 | 80 | 1007.2 |
| 20260509063916 | 5 | 145 | 0.0 | 0.0 | 0.00 | 0.13 | 0.00 | 80 | 1007.4 |
| 20260509063417 | 5 | 145 | 0.0 | 0.0 | 0.00 | 0.13 | 0.00 | 80 | 1007.5 |
| 20260509062916 | 5 | 145 | 0.0 | 0.0 | 0.00 | 0.13 | 0.00 | 80 | 1007.5 |
| 20260509062417 | 6 | 145 | 0.0 | 0.0 | 0.00 | 0.13 | 0.00 | 80 | 1007.6 |
| 20260509061917 | 6 | 145 | 0.0 | 0.0 | 0.00 | 0.13 | 0.00 | 81 | 1007.7 |
| 20260509061417 | 6 | 145 | 0.0 | 0.0 | 0.00 | 0.13 | 0.00 | 81 | 1007.7 |
| 20260509060918 | 6 | 145 | 0.0 | 0.0 | 0.00 | 0.13 | 0.00 | 81 | 1007.7 |
| 20260509060418 | 6 | 145 | 0.0 | 0.0 | 0.00 | 0.13 | 0.00 | 80 | 1007.8 |
| 20260509055916 | 6 | 145 | 0.0 | 0.0 | 0.00 | 0.13 | 0.00 | 79 | 1008.0 |
| 20260509055415 | 6 | 145 | 0.0 | 0.0 | 0.00 | 0.13 | 0.00 | 78 | 1008.0 |
| 20260509054916 | 6 | 145 | 0.0 | 0.0 | 0.00 | 0.13 | 0.00 | 77 | 1008.1 |
| 20260509054417 | 6 | 145 | 0.0 | 0.0 | 0.00 | 0.13 | 0.00 | 76 | 1008.2 |
| 20260509053917 | 7 | 145 | 0.0 | 0.0 | 0.00 | 0.13 | 0.00 | 75 | 1008.3 |
| 20260509053415 | 7 | 145 | 0.0 | 0.0 | 0.00 | 0.13 | 0.00 | 75 | 1008.3 |
| 20260509052917 | 7 | 145 | 0.0 | 0.0 | 0.00 | 0.13 | 0.00 | 75 | 1008.3 |
| 20260509052416 | 7 | 145 | 0.0 | 0.0 | 0.00 | 0.13 | 0.00 | 74 | 1008.3 |
| 20260509051916 | 7 | 145 | 1.6 | 3.2 | 0.00 | 0.13 | 0.00 | 74 | 1008.3 |
| 20260509051416 | 7 | 145 | 1.6 | 3.2 | 0.00 | 0.13 | 0.00 | 73 | 1008.4 |
| 20260509050916 | 7 | 128 | 1.6 | 3.2 | 0.00 | 0.13 | 0.00 | 73 | 1008.4 |
| 20260509050418 | 7 | 152 | 3.2 | 4.8 | 0.00 | 0.13 | 0.00 | 73 | 1008.5 |
| 20260509045916 | 7 | 185 | 4.8 | 8.0 | 0.00 | 0.13 | 0.00 | 73 | 1008.5 |
| 20260509045417 | 7 | 195 | 3.2 | 4.8 | 0.00 | 0.13 | 0.00 | 73 | 1008.5 |
| 20260509044917 | 7 | 178 | 1.6 | 3.2 | 0.00 | 0.13 | 0.00 | 74 | 1008.5 |
| 20260509044415 | 6 | 178 | 3.2 | 4.8 | 0.00 | 0.13 | 0.00 | 74 | 1008.6 |
| 20260509043918 | 6 | 158 | 3.2 | 3.2 | 0.00 | 0.13 | 0.00 | 75 | 1008.7 |
| 20260509043416 | 6 | 162 | 1.6 | 3.2 | 0.00 | 0.13 | 0.00 | 76 | 1008.7 |
| 20260509042917 | 6 | 162 | 0.0 | 0.0 | 0.00 | 0.13 | 0.00 | 76 | 1008.8 |
| 20260509042416 | 6 | 162 | 1.6 | 4.8 | 0.00 | 0.13 | 0.00 | 75 | 1008.9 |
| 20260509041917 | 6 | 162 | 1.6 | 3.2 | 0.00 | 0.13 | 0.00 | 75 | 1009.0 |
| 20260509041418 | 6 | 162 | 0.0 | 0.0 | 0.00 | 0.13 | 0.00 | 76 | 1009.1 |
| 20260509040916 | 6 | 162 | 1.6 | 4.8 | 0.00 | 0.13 | 0.00 | 76 | 1009.1 |
| 20260509040418 | 6 | 162 | 0.0 | 3.2 | 0.00 | 0.13 | 0.00 | 77 | 1009.0 |
| 20260509035917 | 6 | 162 | 1.6 | 3.2 | 0.00 | 0.13 | 0.13 | 77 | 1009.0 |
| 20260509035418 | 6 | 162 | 1.6 | 3.2 | 0.00 | 0.13 | 0.13 | 77 | 1009.1 |
| 20260509034917 | 6 | 162 | 1.6 | 3.2 | 0.00 | 0.13 | 0.13 | 77 | 1009.1 |
| 20260509034416 | 6 | 162 | 3.2 | 4.8 | 0.00 | 0.13 | 0.13 | 77 | 1009.1 |
| 20260509033918 | 6 | 164 | 1.6 | 3.2 | 0.00 | 0.13 | 0.13 | 77 | 1009.2 |
| 20260509033417 | 5 | 150 | 1.6 | 3.2 | 0.00 | 0.13 | 0.13 | 77 | 1009.2 |
| 20260509032918 | 5 | 157 | 1.6 | 4.8 | 0.00 | 0.13 | 0.13 | 77 | 1009.3 |
| 20260509032415 | 5 | 139 | 1.6 | 3.2 | 0.00 | 0.13 | 0.13 | 77 | 1009.4 |
| 20260509031917 | 5 | 139 | 1.6 | 3.2 | 0.00 | 0.13 | 0.13 | 77 | 1009.3 |
| 20260509031416 | 5 | 139 | 1.6 | 3.2 | 0.00 | 0.13 | 0.13 | 78 | 1009.4 |
| 20260509030917 | 5 | 177 | 3.2 | 3.2 | 0.00 | 0.13 | 0.13 | 78 | 1009.4 |
| 20260509030418 | 6 | 188 | 0.0 | 4.8 | 0.00 | 0.13 | 0.13 | 78 | 1009.5 |
| 20260509025917 | 6 | 188 | 0.0 | 0.0 | 0.00 | 0.13 | 0.13 | 78 | 1009.5 |
| 20260509025416 | 6 | 188 | 0.0 | 0.0 | 0.00 | 0.13 | 0.13 | 78 | 1009.6 |
| 20260509024916 | 6 | 188 | 0.0 | 0.0 | 0.00 | 0.13 | 0.13 | 78 | 1009.6 |
| 20260509024416 | 6 | 188 | 0.0 | 0.0 | 0.00 | 0.15 | 0.13 | 78 | 1009.6 |
| 20260509023917 | 6 | 188 | 0.0 | 0.0 | 0.00 | 0.15 | 0.13 | 77 | 1009.6 |
| 20260509023416 | 6 | 188 | 0.0 | 0.0 | 0.00 | 0.15 | 0.13 | 77 | 1009.6 |
| 20260509022918 | 6 | 188 | 0.0 | 0.0 | 0.00 | 0.15 | 0.13 | 76 | 1009.6 |
| 20260509022416 | 6 | 188 | 0.0 | 0.0 | 0.00 | 0.15 | 0.13 | 76 | 1009.6 |
| 20260509021917 | 6 | 188 | 0.0 | 0.0 | 0.00 | 0.15 | 0.13 | 76 | 1009.6 |
| 20260509021418 | 6 | 188 | 0.0 | 0.0 | 0.00 | 0.15 | 0.13 | 76 | 1009.6 |
| 20260509020917 | 6 | 188 | 0.0 | 0.0 | 0.00 | 0.15 | 0.13 | 76 | 1009.6 |
| 20260509015918 | 6 | 188 | 0.0 | 0.0 | 0.00 | 0.15 | 0.13 | 74 | 1009.5 |
| 20260509015418 | 7 | 188 | 0.0 | 0.0 | 0.00 | 0.15 | 0.13 | 75 | 1009.4 |
| 20260509014917 | 7 | 188 | 0.0 | 0.0 | 0.00 | 0.15 | 0.13 | 75 | 1009.3 |
| 20260509014417 | 7 | 188 | 0.0 | 0.0 | 0.00 | 0.15 | 0.13 | 74 | 1009.3 |
| 20260509013917 | 7 | 188 | 0.0 | 0.0 | 0.00 | 0.15 | 0.13 | 73 | 1009.3 |
| 20260509013526 | 7 | 188 | 0.0 | 0.0 | 0.00 | 0.15 | 0.13 | 71 | 1009.3 |
| 20260509013417 | 7 | 188 | 0.0 | 0.0 | 0.00 | 0.15 | 0.13 | 71 | 1009.3 |
| 20260509012957 | 7 | 188 | 0.0 | 0.0 | 0.00 | 0.18 | 0.13 | 72 | 1009.2 |
| 20260509012918 | 7 | 188 | 0.0 | 0.0 | 0.00 | 0.18 | 0.13 | 72 | 1009.2 |
| 20260509012417 | 7 | 188 | 0.0 | 0.0 | 0.00 | 0.20 | 0.13 | 71 | 1009.1 |
| 20260509011916 | 8 | 188 | 0.0 | 0.0 | 0.00 | 0.23 | 0.13 | 70 | 1009.1 |
| 20260509011418 | 8 | 188 | 0.0 | 0.0 | 0.00 | 0.23 | 0.13 | 70 | 1009.1 |
| 20260509010917 | 8 | 188 | 0.0 | 0.0 | 0.00 | 0.23 | 0.13 | 70 | 1009.1 |
| 20260509010416 | 8 | 188 | 0.0 | 0.0 | 0.00 | 0.23 | 0.13 | 67 | 1009.1 |
| 20260509005917 | 8 | 188 | 0.0 | 0.0 | 0.00 | 0.25 | 0.13 | 63 | 1009.1 |
| 20260509005418 | 9 | 188 | 0.0 | 0.0 | 0.00 | 0.28 | 0.13 | 64 | 1009.1 |
| 20260509004922 | 9 | 188 | 0.0 | 0.0 | 0.00 | 0.28 | 0.13 | 63 | 1009.1 |
| 20260509004417 | 10 | 188 | 0.0 | 0.0 | 0.00 | 0.28 | 0.13 | 60 | 1009.1 |
| 20260509003917 | 10 | 188 | 1.6 | 3.2 | 0.00 | 0.30 | 0.13 | 53 | 1009.1 |
| 20260509003417 | 10 | 193 | 1.6 | 3.2 | 0.00 | 0.33 | 0.13 | 53 | 1009.1 |
| 20260509002417 | 10 | 204 | 4.8 | 4.8 | 0.00 | 0.33 | 0.13 | 53 | 1009.1 |
| 20260509001916 | 10 | 194 | 4.8 | 8.0 | 0.00 | 0.33 | 0.13 | 52 | 1009.1 |
| 20260509001417 | 10 | 199 | 4.8 | 8.0 | 0.00 | 0.33 | 0.13 | 52 | 1009.1 |
| 20260509000919 | 11 | 206 | 3.2 | 4.8 | 0.00 | 0.33 | 0.13 | 52 | 1009.0 |
| 20260509000418 | 11 | 213 | 3.2 | 4.8 | 0.00 | 0.33 | 0.13 | 49 | 1008.9 |
| 20260508235917 | 11 | 203 | 3.2 | 4.8 | 0.00 | 0.33 | 0.13 | 49 | 1008.8 |
| 20260508235417 | 11 | 200 | 3.2 | 4.8 | 0.00 | 0.33 | 0.13 | 48 | 1008.8 |
| 20260508234917 | 11 | 212 | 3.2 | 4.8 | 0.00 | 0.33 | 0.13 | 47 | 1008.7 |
| 20260508234417 | 11 | 207 | 4.8 | 9.7 | 0.00 | 0.33 | 0.13 | 46 | 1008.8 |
| 20260508233918 | 11 | 213 | 8.0 | 11.3 | 0.00 | 0.36 | 0.13 | 46 | 1008.8 |
| 20260508233418 | 11 | 206 | 4.8 | 9.7 | 0.00 | 0.41 | 0.13 | 45 | 1008.8 |
| 20260508232917 | 11 | 202 | 3.2 | 4.8 | 0.00 | 0.43 | 0.13 | 45 | 1008.8 |
| 20260508232418 | 12 | 232 | 4.8 | 11.3 | 0.00 | 0.48 | 0.13 | 44 | 1008.8 |
| 20260508231916 | 12 | 209 | 4.8 | 8.0 | 0.00 | 0.51 | 0.13 | 45 | 1008.8 |
| 20260508231417 | 12 | 205 | 8.0 | 11.3 | 0.00 | 0.51 | 0.13 | 46 | 1008.8 |
| 20260508230917 | 12 | 211 | 9.7 | 12.9 | 0.00 | 0.51 | 0.13 | 45 | 1008.8 |
| 20260508230417 | 12 | 209 | 8.0 | 14.5 | 0.00 | 0.51 | 0.13 | 45 | 1008.8 |
| 20260508225918 | 12 | 206 | 11.3 | 16.1 | 0.00 | 0.51 | 0.13 | 44 | 1008.9 |
| 20260508225417 | 12 | 216 | 8.0 | 12.9 | 0.00 | 0.51 | 0.13 | 45 | 1008.8 |
| 20260508224918 | 12 | 195 | 11.3 | 14.5 | 0.00 | 0.51 | 0.13 | 48 | 1008.7 |
| 20260508224416 | 12 | 210 | 8.0 | 11.3 | 0.00 | 0.51 | 0.13 | 49 | 1008.8 |
| 20260508223418 | 12 | 210 | 8.0 | 11.3 | 0.00 | 0.51 | 0.13 | 49 | 1008.8 |
| 20260508222917 | 12 | 195 | 8.0 | 16.1 | 0.00 | 0.51 | 0.13 | 51 | 1008.9 |
| 20260508222417 | 12 | 204 | 9.7 | 12.9 | 0.00 | 0.51 | 0.13 | 50 | 1009.0 |
| 20260508221917 | 12 | 210 | 8.0 | 9.7 | 0.00 | 0.51 | 0.13 | 50 | 1009.0 |
| 20260508221417 | 12 | 232 | 4.8 | 9.7 | 0.00 | 0.51 | 0.13 | 50 | 1008.9 |
| 20260508220916 | 12 | 214 | 8.0 | 8.0 | 0.00 | 0.51 | 0.13 | 48 | 1008.9 |
| 20260508220417 | 13 | 227 | 9.7 | 11.3 | 0.00 | 0.51 | 0.13 | 46 | 1008.9 |
| 20260508215916 | 13 | 228 | 9.7 | 12.9 | 0.00 | 0.51 | 0.13 | 49 | 1009.0 |
| 20260508215417 | 13 | 256 | 9.7 | 12.9 | 0.00 | 0.51 | 0.13 | 47 | 1009.0 |
| 20260508214916 | 13 | 222 | 9.7 | 12.9 | 0.00 | 0.51 | 0.13 | 48 | 1009.0 |
| 20260508214418 | 13 | 216 | 8.0 | 11.3 | 0.00 | 0.51 | 0.13 | 50 | 1009.0 |
| 20260508213918 | 13 | 203 | 9.7 | 14.5 | 0.00 | 0.51 | 0.13 | 49 | 1009.0 |
| 20260508213417 | 13 | 238 | 8.0 | 11.3 | 0.00 | 0.51 | 0.13 | 50 | 1009.1 |